Regional Weather Roundup
Issued by NWS

Home | Current Version | Previous Version | Text Only | Print | Product List | Glossary Off
Versions: 1 2 3 4 5 6 7 8 9 10 11 12 13 14 15 16 17 18 19 20 21 22 23 24 25 26 27 28 29 30 31 32 33 34 35 36 37 38 39 40 41 42 43 44 45 46 47 48 49 50

000
ASUS43 KLOT 241808
RWRIL

ILLINOIS REGIONAL WEATHER ROUNDUP
NATIONAL WEATHER SERVICE CHICAGO/ROMEOVILLE IL
100 PM CDT SAT SEP 24 2016

NOTE: "FAIR" INDICATES FEW OR NO CLOUDS BELOW 12,000 FEET WITH NO
SIGNIFICANT WEATHER AND/OR OBSTRUCTIONS TO VISIBILITY.

* THESE STATIONS ARE NOT UNDER NWS QUALITY CONTROL. THEY ALSO MAY NOT
  REPORT WEATHER SUCH AS PRECIPITATION OR FOG.

ILZ001-002-007-009-015-016-024-241900-
NORTHWEST ILLINOIS

CITY           SKY/WX    TMP DP  RH WIND       PRES   REMARKS
MOLINE         CLOUDY    76  68  76 E9        30.13F HAZE
6HR MIN TEMP:  67; 6HR MAX TEMP:  76;

STERLING*      CLOUDY    71  67  87 E8        30.16F FOG
SAVANNA*       CLOUDY    71  66  84 E8        30.15F
$$

ILZ003-004-008-010-011-017-018-241900-
NORTH CENTRAL ILLINOIS

CITY           SKY/WX    TMP DP  RH WIND       PRES   REMARKS
ROCKFORD       CLOUDY    73  64  73 E8        30.18F
6HR MIN TEMP:  65; 6HR MAX TEMP:  74;

FREEPORT*      CLOUDY    72  64  78 SE5       30.19S
ROCHELLE*      CLOUDY    74  66  74 SE9       30.17F
DE KALB*       CLOUDY    73  66  79 E10       30.19S
$$

ILZ005-006-012>014-019>023-241900-
NORTHEAST ILLINOIS

CITY           SKY/WX    TMP DP  RH WIND       PRES   REMARKS
CHICAGO-OHARE  CLOUDY    70  62  76 NE9       30.19S
6HR MIN TEMP:  66; 6HR MAX TEMP:  70;

CHICAGO-MIDWAY PTSUNNY   75  63  66 NE9       30.18F
6HR MIN TEMP:  67; 6HR MAX TEMP:  75;

AURORA         CLOUDY    73  64  73 E8        30.18F
6HR MIN TEMP:  67; 6HR MAX TEMP:  73;

LANSING*       PTSUNNY   76  67  73 NE5       30.18S
JOLIET*        CLOUDY    75  67  77 E5        30.17F HAZE
WAUKEGAN       CLOUDY    67  61  81 E9        30.20F
6HR MIN TEMP:  64; 6HR MAX TEMP:  67;

DUPAGE AIRPORT CLOUDY    71  63  75 NE9       30.18F
6HR MIN TEMP:  66; 6HR MAX TEMP:  72;

KANKAKEE*      MOSUNNY   76  67  72 NE8       30.17S
WHEELING       CLOUDY    68  61  78 E6        30.21F
6HR MIN TEMP:  65; 6HR MAX TEMP:  68;

MORRIS*        CLOUDY    74  65  74 E6        30.16F
ROMEOVILLE*    CLOUDY    75  68  79 E5        30.17F
NORTHERLY ISL    N/A     70  62  76 NE7         N/A
$$

LMZ740>746-241900-
SOUTHERN LAKE MICHIGAN

STATION/POSITION SKY/WX   TEMP    WIND        PRES    VSBY  WAVE
                          AIR SEA DIR/SP/G                  HT/PER
                          (F)     (DEG/KT/KT) (MB)    (MI)  (FT/S)
SOUTHERN BUOY              65 72   90/ 12/ 14 1022.8F         3/ 4
WILMETTE HARBOR            66 65  110/  4/  6   N/A           3/ 5
HARRISON CRIB              67     100/  7/  9   N/A
BURNHAM HARBOR             70      50/  5/  7   N/A
CALUMET HARBOR             67      50/  6/  8 1021.9F
BURNS HARBOR               69      40/  8/ 10 1022.4F
MICHIGAN CITY              67      20/  8/  8   N/A
MICHIGAN CITY 6N           70 71   30/ 10/ 12   N/A           2/ 5
ST. JOSEPH                 69 71   60/  8/ 12 1022.4F         1
$$

ILZ025>027-034>036-040-047-049-050-058-095>099-241900-
WEST-CENTRAL ILLINOIS

CITY           SKY/WX    TMP DP  RH WIND       PRES   REMARKS
QUINCY         SUNNY     87  65  47 VRB5      30.09F HX  89
GALESBURG*     SUNNY     82  68  61 E6        30.12F HX  85
MACOMB*        SUNNY     85  66  52 S6        30.13F HX  87
JACKSONVILLE*  MOSUNNY   88  65  46 S6        30.10S HX  89
PITTSFIELD*    SUNNY     87  66  49 S8        30.11F HX  89
$$

ILZ028>032-037-038-041>044-048-051>054-059>061-241900-
CENTRAL ILLINOIS

CITY           SKY/WX    TMP DP  RH WIND       PRES   REMARKS
PONTIAC        SUNNY     82  70  68 NE8       30.15F HX  85
BLOOMINGTON    SUNNY     83  68  60 CALM      30.14F HX  86
DECATUR        SUNNY     89  65  44 NW7       30.12F HX  91
PEORIA         SUNNY     82  70  66 E6        30.13S HX  86
6HR MIN TEMP:  68; 6HR MAX TEMP:  82;

LACON*         PTSUNNY   78  68  70 E3        30.13F HX  80
LINCOLN*       SUNNY     86  68  54 CALM      30.11F HX  89
SPRINGFIELD    MOSUNNY   89  65  44 VRB6      30.11F HX  91
6HR MIN TEMP:  68; 6HR MAX TEMP:  89;

TAYLORVILLE    SUNNY     86  64  48 SE3       30.11F HX  87
6HR MIN TEMP:  62; 6HR MAX TEMP:  87;

$$

ILZ033-039-045-046-055>057-062-063-241900-
EAST-CENTRAL ILLINOIS

CITY           SKY/WX    TMP DP  RH WIND       PRES   REMARKS
CHAMPAIGN      SUNNY     88  67  49 NE5       30.13F HX  91
RANTOUL*       SUNNY     85  69  56 E5        30.13F HX  89
MATTOON        SUNNY     86  66  51 CALM      30.11F HX  88
PARIS*         MOSUNNY   86  69  55 CALM      30.12F HX  90
$$

ILZ079-100>102-241900-
SOUTHWEST ILLINOIS

CITY           SKY/WX    TMP DP  RH WIND       PRES   REMARKS
ALTON          MOSUNNY   86  64  48 VRB5      30.11F HX  87
BELLEVILLE     MOSUNNY   89  69  51 VRB3      30.08F HX  93
CAHOKIA*       PTSUNNY   88  67  49 E7        30.08F HX  91
SPARTA*        SUNNY     87  71  58 CALM      30.11S HX  92
$$

ILZ064>066-069>071-074>076-080>082-084>086-088>090-092>094-241900-
SOUTH-CENTRAL ILLINOIS

CITY           SKY/WX    TMP DP  RH WIND       PRES   REMARKS
CARBONDALE     SUNNY     87  70  56 VRB3      30.10F HX  92
6HR MIN TEMP:  63; 6HR MAX TEMP:  87;

CAIRO*         SUNNY     90  69  50 S3        30.09F HX  94
EFFINGHAM*     MOSUNNY   87  66  49 E3        30.13F HX  89
MARION         MOSUNNY   88  70  55 S5        30.11F HX  92
MT. VERNON     SUNNY     88  66  48 CALM      30.11F HX  90
CENTRALIA*     MOSUNNY   87  69  55 CALM      30.10F HX  91
SALEM*         SUNNY     87  65  47 CALM      30.11F HAZE    HX  89
METROPOLIS*    SUNNY     90  69  50 CALM      30.10F HX  95
$$

ILZ067-068-072-073-078-083-087-091-241900-
SOUTHEAST ILLINOIS

CITY           SKY/WX    TMP DP  RH WIND       PRES   REMARKS
LAWRENCEVILLE  SUNNY     88  65  46 VRB3      30.11F HX  90
FLORA*         SUNNY     88  64  45 CALM      30.11F HX  89
FAIRFIELD*     SUNNY     87  65  49 CALM      30.10F HX  88
HARRISBURG*    SUNNY     86  69  56 CALM      30.10F HX  90
ROBINSON*      MOSUNNY   85  66  52 CALM      30.12F HX  88
CARMI*         SUNNY     89  68  49 NW3       30.10F HX  92
$$

ABBREVIATIONS USED IN REMARKS
   TC - TEMPERATURE IN CELSIUS
  WCI - WIND CHILL INDEX
   HX - HEAT INDEX
  VSB - VISIBILITY
$$




USA.gov is the U.S. government's official web portal to all federal, state and local government web resources and services.